Location: Newark
(13.8117°N, 3.6025°W)
Time: 10:30:31
(UTC+00:00)

Courier 1B - Pass Details

Date: 19 August 2019
Orbit: 962 x 1209 km, 28.3° (Epoch: 14 September)

Event Time Altitude Azimuth Distance (km) Brightness Sun altitude
Rises 19:54:33 0° 286° (WNW) 3,680 12.2 -19.6°
Reaches altitude 10° 19:57:48 10° 300° (WNW) 2,707 11.0 -20.3°
Maximum altitude 20:02:53 23° 352° (N) 1,891 9.3 -21.5°
Drops below altitude 10° 20:07:56 10° 44° (NE) 2,686 9.6 -22.6°
Enters shadow 20:07:58 10° 44° (NE) 2,696 9.6 -22.6°
